TimeEST,TemperatureF,Dew PointF,Humidity,Sea Level PressureIn,VisibilityMPH,Wind Direction,Wind SpeedMPH,Gust SpeedMPH,PrecipitationIn,Events,Conditions,WindDirDegrees,DateUTC
12:52 AM,14.0,9.0,80,29.82,10.0,Calm,Calm,-,N/A,,Overcast,0,2012-11-26 05:52:00
1:52 AM,15.1,10.0,80,29.83,10.0,Calm,Calm,-,N/A,,Overcast,0,2012-11-26 06:52:00
2:52 AM,16.0,10.9,81,29.84,10.0,Calm,Calm,-,N/A,,Mostly Cloudy,0,2012-11-26 07:52:00
3:52 AM,19.9,14.0,78,29.85,10.0,Calm,Calm,-,N/A,,Overcast,0,2012-11-26 08:52:00
4:52 AM,21.0,15.1,78,29.86,10.0,Calm,Calm,-,N/A,,Overcast,0,2012-11-26 09:52:00
5:19 AM,21.2,15.8,80,29.81,10.0,Calm,Calm,-,0.00,Snow,Light Snow,0,2012-11-26 10:19:00
5:52 AM,21.0,16.0,81,29.87,10.0,Calm,Calm,-,0.00,,Overcast,0,2012-11-26 10:52:00
6:52 AM,17.1,12.9,84,29.88,10.0,Calm,Calm,-,N/A,,Mostly Cloudy,0,2012-11-26 11:52:00
7:52 AM,19.0,15.1,85,29.90,10.0,Calm,Calm,-,N/A,,Overcast,0,2012-11-26 12:52:00
8:52 AM,23.0,18.0,81,29.91,10.0,Calm,Calm,-,N/A,,Overcast,0,2012-11-26 13:52:00
8:59 AM,23.0,17.6,80,29.86,9.0,Calm,Calm,-,0.00,Snow,Light Snow,0,2012-11-26 13:59:00
9:34 AM,26.6,19.4,74,29.87,2.0,Calm,Calm,-,0.00,Snow,Light Snow,0,2012-11-26 14:34:00
9:52 AM,26.1,21.0,81,29.94,2.5,Calm,Calm,-,0.00,Snow,Light Snow,0,2012-11-26 14:52:00
10:02 AM,26.6,21.2,80,29.89,3.0,Calm,Calm,-,0.00,Snow,Light Snow,0,2012-11-26 15:02:00
10:52 AM,28.0,23.0,81,29.96,4.0,Calm,Calm,-,0.00,Snow,Light Snow,0,2012-11-26 15:52:00
11:25 AM,28.4,24.8,86,29.93,10.0,SW,3.5,-,0.00,,Overcast,230,2012-11-26 16:25:00
11:52 AM,30.9,23.0,72,29.99,10.0,WSW,8.1,-,0.00,,Overcast,250,2012-11-26 16:52:00
12:28 PM,30.2,21.2,69,29.96,10.0,West,10.4,-,N/A,,Overcast,270,2012-11-26 17:28:00
12:52 PM,30.0,19.0,64,30.03,10.0,West,9.2,-,N/A,,Overcast,270,2012-11-26 17:52:00
1:48 PM,30.2,17.6,60,29.99,10.0,WNW,13.8,19.6,N/A,,Scattered Clouds,290,2012-11-26 18:48:00
1:52 PM,30.9,16.0,54,30.04,10.0,WNW,13.8,-,N/A,,Scattered Clouds,290,2012-11-26 18:52:00
3:52 PM,28.0,10.9,49,30.11,10.0,West,4.6,-,N/A,,Clear,280,2012-11-26 20:52:00
4:52 PM,25.0,12.0,58,30.13,10.0,Calm,Calm,-,N/A,,Clear,0,2012-11-26 21:52:00
5:52 PM,21.0,12.0,68,30.17,10.0,SW,3.5,-,N/A,,Clear,220,2012-11-26 22:52:00
6:52 PM,17.1,10.9,77,30.19,10.0,South,4.6,-,N/A,,Clear,190,2012-11-26 23:52:00
7:52 PM,15.1,10.0,80,30.20,10.0,Calm,Calm,-,N/A,,Clear,0,2012-11-27 00:52:00
8:52 PM,12.0,8.1,84,30.23,10.0,Calm,Calm,-,N/A,,Clear,0,2012-11-27 01:52:00
9:52 PM,10.9,7.0,84,30.23,10.0,Calm,Calm,-,N/A,,Clear,0,2012-11-27 02:52:00
10:52 PM,10.0,5.0,80,30.25,10.0,Calm,Calm,-,N/A,,Clear,0,2012-11-27 03:52:00
11:52 PM,10.9,7.0,84,30.25,10.0,Calm,Calm,-,N/A,,Overcast,0,2012-11-27 04:52:00